Regional Weather Roundup
Issued by NWS Cleveland, OH

Home | Current Version | Previous Version | Text Only | Print | Product List | Glossary Off
Versions: 1 2 3 4 5 6 7 8 9 10 11 12 13 14 15 16 17 18 19 20 21 22 23 24 25 26 27 28 29 30 31 32 33 34 35 36 37 38 39 40 41 42 43 44 45 46 47 48 49 50

000
ASUS41 KCLE 290912
RWRCLE
OHIO REGIONAL WEATHER ROUNDUP
NATIONAL WEATHER SERVICE WILMINGTON, OH
500 AM EDT THU SEP 29 2016

NOTE: "FAIR" INDICATES FEW OR NO CLOUDS BELOW 12,000 FEET WITH NO
SIGNIFICANT WEATHER AND/OR OBSTRUCTIONS TO VISIBILITY.

OHZ001>008-015>018-024>027-034-035-043-044-291000-
   NORTHWEST OHIO

CITY           SKY/WX    TMP DP  RH WIND       PRES   REMARKS
DEFIANCE       CLOUDY    57  54  89 N5        30.00R
FINDLAY        CLOUDY    57  53  86 E6        29.98R
TOLEDO EXPRESS MOCLDY    56  56 100 N3        29.99S
TOLEDO EXEC    CLOUDY    58  57  97 NW3       30.00R
LIMA           CLOUDY    55  55 100 E6        29.98R
$$

OHZ009>014-019>023-028>033-038-089-291000-
   NORTHEAST OHIO

CITY           SKY/WX    TMP DP  RH WIND       PRES   REMARKS
CLE-HOPKINS    CLOUDY    58  54  86 SE3       30.03R
CLE-LAKEFRONT  CLOUDY    61  58  90 S5        29.99R
CUY CO. ARPT   NOT AVBL
LORAIN-ELYRIA  CLOUDY    55  52  89 CALM      30.02R
ASHTABULA      MOCLDY    64  59  83 SE9G20    30.06R
AKRON-CANTON   CLOUDY    57  54  89 E12       30.00F
WOOSTER        CLOUDY    54  53  97 CALM      30.01R
MANSFIELD      CLOUDY    54  54 100 E5        30.00R
YOUNGSTOWN     CLOUDY    61  59  93 E8        30.03R
$$

OHZ042-051>053-060>062-070>072-077>081-291000-
  SOUTHWEST OHIO

CITY           SKY/WX    TMP DP  RH WIND       PRES   REMARKS
CINC-COVINGTON CLOUDY    52  52 100 CALM      29.99R FOG
CINC-LUNKEN    MOCLDY    53  53 100 CALM      29.99S
HAMILTON       FAIR      51  50  96 CALM      29.99R FOG
DAYTON         FOG       52  52 100 N5        29.98S VSB 1/4
WRIGHT-PAT AFB NOT AVBL
DAYTON GENERAL CLOUDY    53  51  93 CALM      29.97R FOG
WILMINGTON     FOG       52  52 100 S5        29.98R VSB 1/2
$$

OHZ036-037-039>041-045>050-054>059-063>069-073>076-082>088-291000-
  CENTRAL AND SOUTHEAST OHIO

CITY           SKY/WX    TMP DP  RH WIND       PRES   REMARKS
COLUMBUS       CLOUDY    57  57 100 SE5       29.97S
OSU AIRPORT    CLOUDY    56  56 100 SW3       29.97S
BOLTON FIELD   CLOUDY    54  54 100 CALM      29.98S
RICKENBACK AFB CLOUDY    56  56  99 W3        29.97R
NEWARK         CLOUDY    57  55  93 CALM      29.98R
MARION         CLOUDY    56  53  90 E5        29.99R
LANCASTER      CLOUDY    58  56  93 SE3       29.99R
ZANESVILLE     FAIR      54  53  97 CALM      29.99R
NEW PHILLY     CLOUDY    56  56 100 CALM      30.00S
$$




USA.gov is the U.S. government's official web portal to all federal, state and local government web resources and services.